sat.trackr.live / text

‹ back to catalog

STARLINK-34251

NORAD 64205 · 2025-117C

PAYLOAD ACTIVE UNKNOWN

§ Identity

Operator
Country
US
Launch date
2025-05-31
Launch site
AFWTR
Launch vehicle
Mass (kg)
RCS (m²)

Purposes: comms

External: N2YO · Heavens-Above · Gunter

§ Orbital elements

Epoch: 2026-05-25T04:00:03.998880Z

Period
93.85 min
Inclination
53.1609°
Eccentricity
0.0001112
Mean motion
15.34367204 rev/d
Perigee alt
462.0 km
Apogee alt
463.6 km
Semi-major
6,840.9 km
B*
1.1121e-3
RAAN
44.5724°
Arg perigee
64.5121°
Mean anomaly
232.7274°
Rev number
585

§ Raw data

STARLINK-342511 64205U 25117C   26145.16671295  .00037344  00000+0  11121-2 0  99962 64205  53.1609  44.5724 0001112  64.5121 232.7274 15.34367204  5853

JSON: /api/v1/satellites/64205 · /tle

For live sub-satellite position, see the globe view (requires WebGL).

§ Visibility from observer

Set your observer location to see the next 7 days of passes ≥ 10°. The values pass through the URL so the page stays shareable.

No JS? Fill the form by hand. The geolocation button needs JavaScript.